Location: Holkham
(52.9500°N, 0.8167°E)
Time: 06:42:15
(UTC+00:00)

Cosmos 1743 Rocket - Pass Details

Date: 19 May 2025
Orbit: 599 x 626 km, 82.6° (Epoch: 18 June)

Event Time Altitude Azimuth Distance (km) Brightness Sun altitude
Rises 23:19:06 0° 349° (N) 2,926 8.9 -16.7°
Reaches altitude 10° 23:21:21 10° 351° (N) 2,013 7.5 -16.7°
Maximum altitude 23:25:49 79° 78° (ENE) 643 3.6 -16.8°
Enters shadow 23:27:49 32° 161° (SSE) 1,068 4.2 -16.9°
